Regional Weather Roundup
Issued by NWS Little Rock, AR

Home | Current Version | Previous Version | Text Only | Print | Product List | Glossary On
Versions: 1 2 3 4 5 6 7 8 9 10 11 12 13 14 15 16 17 18 19 20 21 22 23 24 25 26 27 28 29 30 31 32 33 34 35 36 37 38 39 40 41 42 43 44 45 46 47 48 49 50
000
ASUS44 KLZK 281505
RWRLZK

WEATHER ROUNDUP FOR ARKANSAS
NATIONAL WEATHER SERVICE LITTLE ROCK AR
900 AM CST SUN DEC 28 2014

NOTE: "FAIR" INDICATES FEW OR NO CLOUDS BELOW 12,000 FEET WITH NO
SIGNIFICANT WEATHER AND/OR OBSTRUCTIONS TO VISIBILITY.

ARZ001-003-010-029-281600-
NORTHWEST ARKANSAS

CITY           SKY/WX    TMP DP  RH WIND       PRES   REMARKS
FAYETTEVILLE   CLOUDY    28  26  92 CALM      30.24R
FORT SMITH     CLOUDY    33  27  78 W3        30.27F
HARRISON       CLOUDY    28  23  81 NW5       30.23R WCI  23
BENTONVILLE    CLOUDY    28  23  80 CALM      30.25R
ROGERS         CLOUDY    27  26  96 MISG      30.25R
SILOAM SPGS    CLOUDY    27  19  74 CALM      30.26R
HIGHFILL       CLOUDY    28  24  85 N5        30.24R WCI  23
SPRINGDALE     SUNNY     28  25  86 CALM      30.25S
$$

ARZ004-005-016-281600-
NORTH CENTRAL ARKANSAS

CITY           SKY/WX    TMP DP  RH WIND       PRES   REMARKS
BATESVILLE     CLOUDY    34  28  80 NW5       30.25S WCI  30
FLIPPIN        CLOUDY    30  23  74 NW3       30.25R
MTN HOME       CLOUDY    30  25  81 CALM      30.24R
$$

ARZ040-041-281600-
WEST CENTRAL ARKANSAS

CITY           SKY/WX    TMP DP  RH WIND       PRES   REMARKS
MENA           CLOUDY    36  30  80 CALM      30.23S
MOUNT IDA      CLOUDY    33  29  85 NW3       30.21R
$$

ARZ009-017-025-026-028-281600-
NORTHEAST ARKANSAS

CITY           SKY/WX    TMP DP  RH WIND       PRES   REMARKS
CORNING        CLOUDY    36  30  80 N9        30.26R
JONESBORO      CLOUDY    36  32  85 N8        30.23S
NEWPORT        CLOUDY    36  33  88 NW9       30.26R
WALNUT RIDGE   CLOUDY    36  28  75 N10       30.24R
BLYTHEVILLE    CLOUDY    37  35  92 N15       30.22S
$$

ARZ022-023-033-042-044-281600-
CENTRAL ARKANSAS

CITY           SKY/WX    TMP DP  RH WIND       PRES   REMARKS
LITTLE ROCK    CLOUDY    37  31  78 N8        30.26R
N LITTLE ROCK  CLOUDY    35  32  90 N8        30.26R WCI  28
JACKSONVILLE   CLOUDY    36  30  79 NW5       30.25R
SEARCY         CLOUDY    36  30  79 N7        30.27R
HOT SPRINGS    CLOUDY    37  31  78 N5        30.25R
RUSSELLVILLE   CLOUDY    36  28  73 N5        30.26S
CLINTON        FAIR      34  28  80 NW5       30.27F WCI  30
$$

ARZ036-281600-
EAST ARKANSAS

CITY           SKY/WX    TMP DP  RH WIND       PRES   REMARKS
WEST MEMPHIS   CLOUDY    39  37  92 NE10      30.21R
$$

ARZ050-053-066-070-073-281600-
SOUTHWEST ARKANSAS

CITY           SKY/WX    TMP DP  RH WIND       PRES   REMARKS
ARKADELPHIA    CLOUDY    40  39  96 N7        30.25F
CAMDEN         LGT RAIN  41  37  87 MISG      30.24F
TEXARKANA      CLOUDY    37  35  92 NW6       30.23F
EL DORADO      LGT RAIN  41  39  93 N5        30.23F
DE QUEEN       CLOUDY    37  32  82 NE5       30.22F
$$

ARZ056-057-069-281600-
SOUTHEAST ARKANSAS

CITY           SKY/WX    TMP DP  RH WIND       PRES   REMARKS
PINE BLUFF     LGT RAIN  39  35  86 N8        30.25S
STUTTGART      CLOUDY    37  34  87 N14       30.25R
MONTICELLO     LGT RAIN  41  38  89 N3        30.23R

$$





USA.gov is the U.S. government's official web portal to all federal, state and local government web resources and services.